Boise, ID

7:32 AM MDT on September 21, 2017 (GMT -0600)
Boise Air Term

Weather History for KBOI - July, 2012

Change the Weather History Date:

Sunday, July 1, 2012

  Actual Average Record
Temperature  
Mean Temperature 77 °F 72 °F  
Max Temperature 88 °F 87 °F 110 °F (2013)
Min Temperature 66 °F 57 °F 40 °F (1935)
Degree Days  
Heating Degree Days 0 1  
Month to date heating degree days 0 1  
Since 1 June heating degree days 64 65  
Since 1 July heating degree days 0 1  
Cooling Degree Days 12 8  
Month to date cooling degree days 12 8  
Year to date cooling degree days 211 191  
Since 1 June cooling degree days 152 147  
Growing Degree Days 27 (Base 50)    
Moisture  
Dew Point 50 °F    
Average Humidity 42    
Maximum Humidity 63    
Minimum Humidity 21    
Precipitation  
Precipitation 0.00 in 0.01 in 0.70 in (1983)
Month to date precipitation 0.00 0.01  
Year to date precipitation 8.79 6.94  
Snow  
Snow 0.00 in 0.00 in 0.00 in (2006)
Month to date snowfall 0.0 0.0  
Since 1 July snowfall 0.0 0.0  
Snow Depth 0.00 in    
Sea Level Pressure  
Sea Level Pressure 29.78 in    
Wind  
Wind Speed 11 mph (NW)    
Max Wind Speed 22 mph    
Max Gust Speed 26 mph    
Visibility 10 miles    
Events      
T = Trace of Precipitation, MM = Missing Value Source: NWS Daily Summary

Daily Weather History Graph

Daily Weather History Graph

Search for Another Location

Airport or City:

Trip Planner

Search our weather history database for the weather conditions in past years. The results will help you decide how hot, cold, wet, or windy it might be!

Date:

Astronomy

Jul. 01, 2012 Rise Set
Actual Time 6:07 AM MDT 9:29 PM MDT
Civil Twilight 5:32 AM MDT 10:05 PM MDT
Nautical Twilight 4:45 AM MDT 10:51 PM MDT
Astronomical Twilight 3:47 AM MDT 11:49 PM MDT
Moon 7:36 PM MDT (7/1) 4:00 AM MDT (7/1)
Length of Visible Light 16h 33m
Length of Day
15h 21m
Waxing Gibbous, 94% of the Moon is Illuminated
Jul 1
Waxing Gibbous
Jul 3
Full
Jul 10
Last Quarter
Jul 18
New
Jul 26
First Quarter

Hourly Weather History & Observations

Time (MDT) Temp. Dew Point Humidity Pressure Visibility Wind Dir Wind Speed Gust Speed Precip Events Conditions
12:53 AM 72.0 °F 53.1 °F 51% 29.70 in 10.0 mi WNW 10.4 mph - N/A   Clear
1:53 AM 71.1 °F 53.1 °F 53% 29.70 in 10.0 mi WNW 11.5 mph - N/A   Clear
2:53 AM 69.1 °F 52.0 °F 54% 29.71 in 10.0 mi WNW 12.7 mph - N/A   Clear
3:53 AM 68.0 °F 52.0 °F 56% 29.71 in 10.0 mi WNW 13.8 mph - N/A   Clear
4:53 AM 68.0 °F 52.0 °F 56% 29.73 in 10.0 mi WNW 13.8 mph - N/A   Clear
5:53 AM 66.2 °F 51.8 °F 60% 29.85 in 10.0 mi NW 11.5 mph - N/A   Clear
6:53 AM 66.0 °F 52.0 °F 60% 29.78 in 10.0 mi WNW 11.5 mph - N/A   Clear
7:53 AM 66.9 °F 53.1 °F 61% 29.79 in 10.0 mi NW 8.1 mph - N/A   Clear
8:53 AM 69.1 °F 54.0 °F 58% 29.81 in 10.0 mi WNW 13.8 mph - N/A   Clear
9:53 AM 72.0 °F 54.0 °F 53% 29.81 in 10.0 mi NNW 13.8 mph - N/A   Clear
10:53 AM 72.0 °F 54.0 °F 53% 29.82 in 10.0 mi WNW 19.6 mph - N/A   Clear
11:53 AM 73.0 °F 52.0 °F 48% 29.85 in 10.0 mi NW 15.0 mph - N/A   Clear
12:53 PM 75.9 °F 53.1 °F 45% 29.85 in 10.0 mi WNW 11.5 mph - N/A   Clear
1:53 PM 78.1 °F 52.0 °F 40% 29.83 in 10.0 mi NW 11.5 mph - N/A   Clear
2:53 PM 82.0 °F 50.0 °F 33% 29.82 in 10.0 mi WNW 11.5 mph 18.4 mph N/A   Clear
3:53 PM 86.0 °F 46.9 °F 26% 29.80 in 10.0 mi NW 10.4 mph 18.4 mph N/A   Clear
4:53 PM 87.1 °F 44.1 °F 22% 29.79 in 10.0 mi NW 9.2 mph 17.3 mph N/A   Clear
5:53 PM 87.1 °F 43.0 °F 21% 29.78 in 10.0 mi North 10.4 mph - N/A   Clear
6:53 PM 87.1 °F 43.0 °F 21% 29.76 in 10.0 mi WNW 12.7 mph 19.6 mph N/A   Clear
7:53 PM 86.0 °F 43.0 °F 22% 29.76 in 10.0 mi NW 12.7 mph - N/A   Clear
8:53 PM 84.0 °F 44.1 °F 25% 29.77 in 10.0 mi NW 11.5 mph - N/A   Clear
9:53 PM 79.0 °F 46.9 °F 32% 29.78 in 10.0 mi NW 8.1 mph - N/A   Clear
10:53 PM 75.9 °F 48.0 °F 37% 29.80 in 10.0 mi WNW 4.6 mph - N/A   Clear
11:53 PM 73.9 °F 46.9 °F 38% 29.80 in 10.0 mi WNW 6.9 mph - N/A   Clear